SCP
-0 -0 -0 -0 -0 -0 -0 -0 -0 -0 -0 0 0 -0 0 0 0 0 0 0 0 0 0 0 0 0 0 0 0 0 0 0 0 0 0 0 0 0 0 0 0 0 0 0 0 0 0
0 0 0 0 0 -0 -0 -0 -0 -0 -0 0 0 0 0 0 0 0 0 0 0 0 0 0 0 0 0 0 0 0 0 0 0 0 0 0 0 0 0 0 0 0 0 0 0 0 0
0 0 0 0 0 -0 -0 -0 -0 -0 -0 -0 -0 0 0 0 0 0 0 0 0 0 0 0 0 0 0 0 0 0 0 0 0 0 0 0 0 0 0 0 0 0 0 0 0 0 0
0 0 0 0 -0 -0 -0 -0 -0 -0 -0 -0 0 0 0 0 0 0 0 0 0 0 0 0 0 0 0 0 0 0 0 0 0 0 0 0 0 0 0 0 0 0 0 0 0 0 0
0 0 0 0 -0 -0 -0 -0 -0 -0 -0 -0 0 -0 -0 0 0 0 0 -0 0 0 0 0 0 0 0 0 0 0 0 0 0 0 0 0 0 0 0 0 0 0 0 0 0 0 0
0 0 0 -0 -0 -0 -0 -0 -0 -0 -0 -0 -0 -0 -0 0 0 0 0 0 0 0 0 0 0 0 -0 0 0 0 0 0 0 0 0 0 0 0 0 0 0 0 0 0 0 0 0
0 0 -0 -0 -0 -0 -0 -0 -0 -0 -0 -0 -0 -0 -0 0 0 0 0 0 0 0 0 0 0 0 -0 -0 -0 0 0 0 0 0 0 0 0 0 0 0 0 0 0 0 0 0 0
0 0 -0 -0 -0 -0 -0 -0 -0 -0 -0 -0 -0 -0 0 0 0 0 0 0 0 0 0 0 0 0 0 0 0 0 0 0 0 0 0 0 0 0 0 0 0 0 0 0 0 0 0
0 0 -0 -0 -0 -0 -0 -0 -0 -0 -0 -0 -0 -0 0 0 0 0 0 0 0 0 0 0 0 0 0 0 0 -0 0 0 0 0 0 0 0 0 0 0 0 0 0 0 0 0 0
0 0 -0 -0 -0 -0 -0 -0 -0 0 0 0 -0 -0 0 0 0 0 0 0 0 0 0 0 0 0 0 0 0 0 0 0 0 0 0 0 0 0 0 0 0 0 0 0 0 0 0
0 0 0 -0 -0 -0 -0 0 0 0 0 0 0 0 0 0 0 0 0 0 0 0 0 0 0 0 0 0 0 0 0 0 0 0 0 0 0 0 0 0 0 0 0 0 0 0 0
0 0 0 0 -0 0 0 0 0 0 0 0 0 0 0 0 0 0 0 0 0 0 0 0 0 0 0 0 0 0 0 0 0 0 0 0 0 0 0 0 0 0 0 0 0 0 0
0 0 0 0 0 0 0 0 0 0 0 0 -0 0 0 0 0 0 0 0 0 0 0 0 0 0 0 0 0 0 0 0 0 0 0 0 0 0 0 0 0 0 0 0 0 0 0
0 0 0 0 0 0 0 0 0 0 0 -0 0 0 0 0 0 0 0 0 0 0 0 0 0 0 0 0 0 0 0 0 0 0 0 0 0 0 0 0 0 0 0 0 0 0 0
0 0 0 0 0 0 0 0 0 0 0 -0 0 0 0 0 0 0 0 0 0 0 0 0 0 0 0 0 0 0 0 0 0 0 0 0 0 0 0 0 0 0 0 0 0 0 0
0 0 0 0 0 0 0 0 0 0 0 0 0 0 0 0 0 0 0 0 0 0 0 0 0 0 0 0 0 0 0 0 0 0 -0 0 0 0 0 0 0 0 0 0 0 0 0
0 0 0 0 0 0 0 0 0 0 -0 0 0 0 0 0 0 0 0 0 0 0 0 0 0 0 0 0 0 0 0 0 0 0 0 0 0 0 0 0 0 0 0 0 0 0 0
0 0 0 0 0 0 0 0 0 0 0 0 0 0 0 0 0 0 0 0 0 0 0 0 0 0 0 0 0 0 0 0 0 0 0 0 0 0 0 0 0 0 0 0 0 0 0
0 0 0 0 0 0 0 0 0 0 0 0 0 0 0 0 0 0 0 0 0 0 0 0 0 0 0 0 0 0 0 0 0 0 0 0 0 0 0 0 0 0 0 0 0 0 0
0 0 0 0 0 0 0 0 0 0 0 0 0 0 0 0 0 0 0 0 0 0 0 0 0 0 0 0 0 0 0 0 0 0 0 0 0 0 -0 0 0 0 0 0 0 0 0
0 0 0 0 0 0 0 0 0 0 0 0 0 0 0 0 0 0 0 0 0 0 0 0 0 0 0 0 0 0 0 0 0 0 0 0 0 0 0 0 0 0 0 0 0 0 0
0 0 0 0 0 0 0 0 0 0 0 0 0 0 0 0 0 0 0 0 0 0 0 0 0 0 0 0 0 0 0 0 0 0 0 0 0 0 0 -0 -0 0 0 0 0 0 0
0 0 0 0 0 0 0 0 0 0 0 0 0 0 0 0 0 0 0 0 0 0 0 0 0 0 0 0 0 0 0 0 0 0 0 0 0 0 0 0 -0 0 -0 -0 0 0 0
0 0 0 0 0 0 0 0 0 0 0 0 0 0 0 0 0 0 0 0 0 0 0 0 0 0 0 0 0 0 0 0 0 0 0 0 0 0 0 0 0 0 0 0 0 0 -0
0 0 0 0 0 0 0 0 0 0 0 0 0 0 0 0 0 0 0 0 0 0 0 0 0 0 0 0 0 0 0 0 0 0 0 0 0 0 0 0 0 0 0 0 0 0 0
0 0 0 0 0 0 0 0 0 0 0 0 0 0 0 0 0 0 0 0 0 0 0 0 0 0 0 0 0 0 0 0 0 0 0 0 0 0 0 0 0 0 0 0 0 0 0
0 0 0 0 0 0 0 0 0 0 0 0 0 0 0 0 0 0 0 0 0 0 0 0 0 0 0 0 0 0 0 0 0 0 0 0 0 0 0 0 0 0 0 0 0 0 0
0 0 0 0 0 0 0 0 0 0 0 0 0 0 0 0 0 0 0 0 0 0 0 0 -0 -0 0 0 0 0 0 0 0 0 0 0 0 0 0 0 0 0 0 0 0 0 0
0 0 0 0 0 0 0 0 0 0 0 0 0 0 0 0 0 0 0 -0 -0 -0 0 0 0 0 0 -0 0 0 0 0 0 0 0 0 0 0 0 0 0 0 0 0 0 0 0
Wind_Speed_500mb
41 41 42 43 45 47 48 49 52 55 58 60 61 60 58 57 53 42 36 33 34 30 26 24 24 22 20 16 24 19 27 30 23 42 61 49 39 19 13 11 8 9 10 17 29 37 37
40 42 43 44 46 47 50 53 57 60 62 63 63 64 61 57 51 40 34 31 29 28 26 23 22 18 15 10 11 12 13 14 14 47 56 47 26 31 14 11 11 12 13 23 28 36 19
41 42 43 45 46 47 51 55 57 60 64 67 68 66 62 57 51 40 31 25 27 30 28 23 19 17 24 35 25 24 24 12 4 35 48 44 17 30 16 3 8 16 9 13 10 18 15
39 40 41 44 47 50 52 54 58 62 64 67 69 68 65 57 46 32 24 28 23 34 22 20 18 20 19 30 24 25 17 7 11 24 25 35 35 11 5 5 9 5 6 1 11 4 11
39 41 44 45 46 50 54 58 60 63 65 66 68 71 66 53 40 23 25 29 32 28 13 12 15 15 20 9 10 23 15 17 15 19 22 12 14 12 5 9 8 11 6 7 13 7 6
41 42 44 47 50 53 56 60 63 65 67 70 70 70 64 49 32 17 24 29 35 12 10 15 16 14 11 1 9 28 5 22 14 16 12 12 9 6 7 7 12 10 8 8 8 5 9
43 45 46 48 51 55 57 62 65 68 70 72 73 71 60 42 24 15 24 24 36 8 37 35 50 44 63 39 30 12 9 3 28 9 10 11 7 11 20 16 15 10 9 10 7 10 4
43 45 47 50 53 55 57 61 66 69 71 74 76 71 52 33 11 16 19 21 33 29 33 53 40 46 52 57 23 25 11 14 13 14 11 5 12 23 17 7 13 10 10 10 12 10 11
44 45 47 49 52 55 57 60 64 67 69 71 74 63 44 24 9 25 22 34 33 29 10 26 14 11 18 7 15 35 17 16 11 9 15 16 14 10 13 9 9 8 10 8 16 10 6
45 47 48 51 54 57 60 62 64 68 70 70 70 50 34 19 5 33 28 43 27 12 8 13 10 16 20 4 2 21 11 23 4 23 13 10 10 16 11 11 15 11 15 16 11 3 9
49 51 53 55 56 59 62 64 65 67 69 68 68 37 26 27 19 40 48 37 9 3 7 18 13 18 22 15 24 28 31 10 11 10 12 19 11 12 12 16 17 16 14 17 10 9 6
49 50 53 55 57 60 62 64 66 67 65 67 66 32 23 29 31 39 46 24 6 10 11 14 14 18 14 27 22 31 27 29 12 6 4 12 6 10 15 12 15 9 7 11 9 7 5
52 53 53 55 58 61 63 66 68 68 65 63 63 32 19 31 61 44 44 2 9 7 12 15 11 13 9 14 13 21 12 24 14 15 16 15 6 10 16 6 9 7 10 5 6 1 21
55 55 56 57 59 62 66 67 68 67 65 62 57 46 19 30 47 36 23 9 6 6 7 7 10 5 10 15 11 15 7 9 13 8 4 10 7 16 19 2 6 8 16 11 12 9 14
58 58 59 60 60 62 65 69 69 68 67 66 61 31 5 45 36 18 4 10 6 3 7 11 8 9 9 9 8 9 12 12 7 11 7 9 10 7 7 9 2 5 6 13 5 2 6
56 58 59 59 60 60 62 66 69 68 67 69 59 16 25 56 19 11 12 5 1 6 9 8 2 8 8 12 12 9 4 7 9 16 0 4 9 6 12 7 14 10 7 5 5 7 8
57 59 59 60 60 60 61 63 67 68 66 65 49 12 43 43 13 21 8 3 5 13 6 7 4 4 4 7 5 8 7 5 9 8 10 4 5 12 9 11 7 9 8 9 4 5 9
56 57 59 58 58 59 59 58 59 64 65 64 34 8 47 39 19 9 5 11 14 10 11 9 6 5 2 6 7 2 3 4 12 7 4 6 5 4 5 16 28 17 9 6 2 5 2
59 56 57 57 55 56 56 55 52 53 57 57 33 15 27 33 8 7 13 9 6 5 6 3 3 2 3 1 6 3 4 6 14 5 2 4 4 5 11 6 5 10 8 6 3 2 8
62 59 57 57 54 54 52 53 49 47 45 40 17 9 14 27 15 6 8 8 11 9 5 6 5 9 4 2 3 6 3 2 6 5 8 7 3 8 10 5 3 9 19 9 4 2 11
60 61 57 55 54 53 48 48 48 45 40 28 17 4 6 8 8 5 2 7 7 11 13 14 5 4 3 4 5 6 4 7 6 6 7 7 7 7 9 11 12 16 23 14 16 13 13
58 57 54 53 53 50 46 44 45 43 37 16 10 10 8 6 12 8 5 3 7 8 6 5 7 15 8 8 9 8 2 4 11 4 4 4 5 6 8 20 19 24 24 25 23 21 35
56 52 51 52 51 45 42 41 40 41 34 13 11 8 7 6 6 4 3 3 4 10 11 5 10 6 6 5 20 24 26 24 23 13 11 9 9 4 6 5 8 16 35 29 11 12 14
58 51 47 51 48 41 38 37 34 31 28 16 12 10 5 6 2 6 15 27 20 10 7 29 36 8 5 22 25 22 26 35 33 28 26 12 11 7 5 3 9 13 7 11 20 19 20
57 50 44 48 44 38 36 33 32 26 17 15 10 8 4 6 5 25 9 8 20 30 21 21 31 10 16 14 5 11 8 9 7 10 11 19 10 4 5 7 15 10 10 11 14 21 34
57 50 43 43 41 37 34 32 30 27 15 18 10 10 11 10 6 10 8 23 16 11 10 8 14 33 8 4 4 7 6 4 8 11 12 10 6 8 5 8 14 11 8 28 11 32 17
58 51 43 37 36 34 31 28 22 22 21 18 18 12 14 14 21 14 10 6 7 5 5 10 13 9 2 4 3 5 7 5 5 7 8 4 3 11 9 9 17 14 13 24 14 13 8
55 49 40 32 32 32 28 17 14 24 19 18 24 21 26 17 37 47 35 35 30 22 7 6 13 3 4 2 6 6 6 7 4 8 7 11 8 8 5 7 26 35 14 18 12 9 6
52 43 32 29 30 28 22 13 14 18 18 21 31 18 26 37 37 66 73 69 66 59 33 17 13 3 6 4 2 1 5 3 7 9 10 10 18 8 18 14 15 19 19 34 32 46 43
Wind_Direction_500mb
32 29 26 24 22 19 17 14 8 5 2 359 354 352 349 345 341 335 330 324 320 317 315 313 308 305 302 289 270 286 281 288 309 201 192 192 180 158 163 192 211 212 238 239 257 265 263
28 26 22 20 19 15 12 9 6 3 359 356 354 351 348 345 339 334 333 326 320 317 309 310 304 295 287 275 292 295 330 307 313 195 186 192 204 193 178 194 170 235 238 253 261 262 247
25 21 17 15 13 11 8 5 2 360 357 355 351 349 347 344 339 337 338 338 331 315 301 299 291 282 281 277 284 268 291 327 242 194 193 197 201 179 196 200 273 262 289 303 242 257 212
20 16 14 11 7 4 3 0 359 358 356 353 350 348 347 343 339 339 340 338 320 327 302 281 281 280 264 301 289 278 266 214 178 199 194 212 205 223 234 276 356 336 64 312 279 6 241
14 12 11 7 3 1 359 357 356 355 354 352 349 347 347 342 338 339 339 337 330 326 317 288 279 280 275 343 32 19 223 214 199 193 210 224 206 225 172 102 10 352 235 224 308 249 257
11 8 6 3 0 360 358 355 353 352 352 352 349 347 347 342 338 336 344 334 333 334 348 313 276 298 254 188 339 341 343 221 170 192 187 193 177 103 45 106 210 223 223 241 221 286 44
8 6 3 0 359 358 356 354 352 352 351 351 349 349 349 346 347 342 342 347 8 336 309 275 273 265 280 293 296 267 314 173 214 164 165 188 128 194 217 198 203 210 202 230 248 240 252
7 5 2 0 357 356 356 354 353 352 351 353 351 351 354 357 39 25 8 49 3 323 298 304 291 274 279 272 293 259 240 181 159 195 134 71 218 224 218 178 194 202 239 270 274 261 175
6 3 1 359 356 354 355 355 352 351 352 354 353 354 -0 4 52 22 28 354 338 322 279 300 319 326 351 341 214 279 235 203 176 190 185 181 221 185 176 183 165 207 189 224 234 297 252
3 1 358 357 356 354 354 354 352 351 351 356 356 358 7 10 352 360 1 346 329 302 39 287 355 11 3 1 260 27 287 228 192 204 201 216 243 198 181 213 167 236 209 231 249 135 256
1 359 356 357 356 354 353 354 352 352 351 355 357 358 10 16 353 353 341 341 325 149 338 332 358 355 16 74 331 2 11 236 223 197 119 232 200 186 196 212 177 223 207 205 215 209 71
359 359 356 355 354 354 353 351 352 353 352 352 357 351 344 348 339 338 339 338 149 46 257 353 15 354 13 6 9 354 11 38 32 355 333 237 211 179 219 235 193 199 145 52 52 108 252
359 357 356 355 354 354 352 351 352 354 352 352 355 345 328 342 345 330 332 345 40 156 347 356 332 348 38 350 7 10 58 50 29 5 18 342 317 355 29 28 9 120 79 297 312 163 248
359 357 355 354 353 354 353 352 351 355 353 352 352 339 277 342 338 326 333 55 191 13 344 359 341 330 46 357 357 8 57 42 20 38 8 16 327 13 336 339 250 212 165 166 228 209 258
358 357 355 352 352 353 353 350 350 354 354 351 349 355 355 342 341 353 19 63 188 293 303 341 317 19 359 344 335 47 46 357 51 26 63 15 275 341 345 344 18 314 181 155 177 356 97
355 354 354 351 350 351 351 350 349 353 355 353 351 5 2 346 348 1 74 126 84 344 343 38 44 13 358 335 2 22 70 1 2 356 125 121 287 22 295 337 15 69 352 67 7 208 233
349 350 350 350 349 349 351 351 349 351 356 358 354 1 350 359 16 55 94 4 334 8 48 33 28 31 52 332 302 358 1 52 354 331 84 29 162 305 341 41 282 336 23 -0 125 140 196
345 346 345 346 348 347 348 351 354 351 355 2 354 11 350 6 47 35 54 318 330 347 22 40 81 69 76 358 322 21 88 83 352 348 43 21 142 292 258 88 57 65 48 48 65 207 226
340 341 341 342 345 345 344 346 355 358 357 356 341 320 353 19 67 5 320 313 349 4 9 55 92 82 46 358 322 29 26 186 56 105 133 309 353 6 351 347 39 50 47 35 232 12 237
333 334 334 339 342 342 342 343 352 358 360 355 350 356 5 53 72 90 5 304 328 359 36 12 81 58 70 283 289 295 268 314 314 203 77 99 140 168 194 230 174 290 316 351 107 229 334
327 328 330 335 337 338 339 341 346 356 1 4 10 45 13 330 2 358 266 334 339 357 351 21 60 73 196 259 284 278 278 310 286 242 109 116 208 206 238 270 279 268 284 271 235 219 224
323 325 327 330 333 335 337 340 341 350 3 6 15 359 348 305 304 340 5 28 33 339 305 344 53 314 261 228 222 258 241 236 246 333 110 19 245 189 262 237 242 267 259 253 256 247 254
317 320 323 325 329 331 332 335 340 343 3 22 7 338 330 344 348 6 249 81 0 350 282 46 347 312 239 216 294 274 269 252 244 203 196 169 167 127 268 193 236 274 250 231 223 216 228
311 313 318 321 324 324 326 329 335 340 348 10 348 334 355 290 323 280 308 305 293 259 258 290 303 256 276 319 299 280 265 258 252 250 203 170 154 159 230 168 236 238 168 180 213 245 247
304 305 311 317 319 321 321 323 327 332 332 345 336 330 275 274 309 295 311 340 322 313 283 260 266 240 327 312 334 325 326 340 285 235 197 188 141 190 180 212 285 280 212 192 183 252 236
300 298 305 312 314 318 316 318 321 319 322 305 322 278 261 304 226 255 309 296 285 293 319 291 307 311 281 103 103 195 234 271 306 318 58 105 107 141 156 183 239 228 208 209 95 262 278
296 296 299 307 309 311 314 318 328 337 334 291 282 278 262 260 278 263 232 292 282 261 257 301 317 349 317 77 117 169 243 216 242 228 215 145 141 194 210 239 276 240 229 151 184 255 357
294 293 299 304 304 303 304 306 346 338 328 310 305 275 271 269 280 275 269 254 258 249 249 321 328 311 41 88 174 218 203 240 274 242 205 191 197 214 204 193 272 216 149 191 214 225 217
288 291 303 303 300 298 293 294 337 325 314 293 307 298 285 274 269 282 284 277 262 251 250 224 231 227 247 88 272 26 262 278 195 269 203 255 204 204 199 213 240 209 230 226 233 262 247
Wind_Speed_850mb
41 41 42 43 45 47 48 49 52 55 58 60 61 60 58 57 53 42 36 33 34 30 26 24 24 22 20 16 24 19 27 30 23 42 61 49 39 19 13 11 8 9 10 17 29 37 37
40 42 43 44 46 47 50 53 57 60 62 63 63 64 61 57 51 40 34 31 29 28 26 23 22 18 15 10 11 12 13 14 14 47 56 47 26 31 14 11 11 12 13 23 28 36 19
41 42 43 45 46 47 51 55 57 60 64 67 68 66 62 57 51 40 31 25 27 30 28 23 19 17 24 35 25 24 24 12 4 35 48 44 17 30 16 3 8 16 9 13 10 18 15
39 40 41 44 47 50 52 54 58 62 64 67 69 68 65 57 46 32 24 28 23 34 22 20 18 20 19 30 24 25 17 7 11 24 25 35 35 11 5 5 9 5 6 1 11 4 11
39 41 44 45 46 50 54 58 60 63 65 66 68 71 66 53 40 23 25 29 32 28 13 12 15 15 20 9 10 23 15 17 15 19 22 12 14 12 5 9 8 11 6 7 13 7 6
41 42 44 47 50 53 56 60 63 65 67 70 70 70 64 49 32 17 24 29 35 12 10 15 16 14 11 1 9 28 5 22 14 16 12 12 9 6 7 7 12 10 8 8 8 5 9
43 45 46 48 51 55 57 62 65 68 70 72 73 71 60 42 24 15 24 24 36 8 37 35 50 44 63 39 30 12 9 3 28 9 10 11 7 11 20 16 15 10 9 10 7 10 4
43 45 47 50 53 55 57 61 66 69 71 74 76 71 52 33 11 16 19 21 33 29 33 53 40 46 52 57 23 25 11 14 13 14 11 5 12 23 17 7 13 10 10 10 12 10 11
44 45 47 49 52 55 57 60 64 67 69 71 74 63 44 24 9 25 22 34 33 29 10 26 14 11 18 7 15 35 17 16 11 9 15 16 14 10 13 9 9 8 10 8 16 10 6
45 47 48 51 54 57 60 62 64 68 70 70 70 50 34 19 5 33 28 43 27 12 8 13 10 16 20 4 2 21 11 23 4 23 13 10 10 16 11 11 15 11 15 16 11 3 9
49 51 53 55 56 59 62 64 65 67 69 68 68 37 26 27 19 40 48 37 9 3 7 18 13 18 22 15 24 28 31 10 11 10 12 19 11 12 12 16 17 16 14 17 10 9 6
49 50 53 55 57 60 62 64 66 67 65 67 66 32 23 29 31 39 46 24 6 10 11 14 14 18 14 27 22 31 27 29 12 6 4 12 6 10 15 12 15 9 7 11 9 7 5
52 53 53 55 58 61 63 66 68 68 65 63 63 32 19 31 61 44 44 2 9 7 12 15 11 13 9 14 13 21 12 24 14 15 16 15 6 10 16 6 9 7 10 5 6 1 21
55 55 56 57 59 62 66 67 68 67 65 62 57 46 19 30 47 36 23 9 6 6 7 7 10 5 10 15 11 15 7 9 13 8 4 10 7 16 19 2 6 8 16 11 12 9 14
58 58 59 60 60 62 65 69 69 68 67 66 61 31 5 45 36 18 4 10 6 3 7 11 8 9 9 9 8 9 12 12 7 11 7 9 10 7 7 9 2 5 6 13 5 2 6
56 58 59 59 60 60 62 66 69 68 67 69 59 16 25 56 19 11 12 5 1 6 9 8 2 8 8 12 12 9 4 7 9 16 0 4 9 6 12 7 14 10 7 5 5 7 8
57 59 59 60 60 60 61 63 67 68 66 65 49 12 43 43 13 21 8 3 5 13 6 7 4 4 4 7 5 8 7 5 9 8 10 4 5 12 9 11 7 9 8 9 4 5 9
56 57 59 58 58 59 59 58 59 64 65 64 34 8 47 39 19 9 5 11 14 10 11 9 6 5 2 6 7 2 3 4 12 7 4 6 5 4 5 16 28 17 9 6 2 5 2
59 56 57 57 55 56 56 55 52 53 57 57 33 15 27 33 8 7 13 9 6 5 6 3 3 2 3 1 6 3 4 6 14 5 2 4 4 5 11 6 5 10 8 6 3 2 8
62 59 57 57 54 54 52 53 49 47 45 40 17 9 14 27 15 6 8 8 11 9 5 6 5 9 4 2 3 6 3 2 6 5 8 7 3 8 10 5 3 9 19 9 4 2 11
60 61 57 55 54 53 48 48 48 45 40 28 17 4 6 8 8 5 2 7 7 11 13 14 5 4 3 4 5 6 4 7 6 6 7 7 7 7 9 11 12 16 23 14 16 13 13
58 57 54 53 53 50 46 44 45 43 37 16 10 10 8 6 12 8 5 3 7 8 6 5 7 15 8 8 9 8 2 4 11 4 4 4 5 6 8 20 19 24 24 25 23 21 35
56 52 51 52 51 45 42 41 40 41 34 13 11 8 7 6 6 4 3 3 4 10 11 5 10 6 6 5 20 24 26 24 23 13 11 9 9 4 6 5 8 16 35 29 11 12 14
58 51 47 51 48 41 38 37 34 31 28 16 12 10 5 6 2 6 15 27 20 10 7 29 36 8 5 22 25 22 26 35 33 28 26 12 11 7 5 3 9 13 7 11 20 19 20
57 50 44 48 44 38 36 33 32 26 17 15 10 8 4 6 5 25 9 8 20 30 21 21 31 10 16 14 5 11 8 9 7 10 11 19 10 4 5 7 15 10 10 11 14 21 34
57 50 43 43 41 37 34 32 30 27 15 18 10 10 11 10 6 10 8 23 16 11 10 8 14 33 8 4 4 7 6 4 8 11 12 10 6 8 5 8 14 11 8 28 11 32 17
58 51 43 37 36 34 31 28 22 22 21 18 18 12 14 14 21 14 10 6 7 5 5 10 13 9 2 4 3 5 7 5 5 7 8 4 3 11 9 9 17 14 13 24 14 13 8
55 49 40 32 32 32 28 17 14 24 19 18 24 21 26 17 37 47 35 35 30 22 7 6 13 3 4 2 6 6 6 7 4 8 7 11 8 8 5 7 26 35 14 18 12 9 6
52 43 32 29 30 28 22 13 14 18 18 21 31 18 26 37 37 66 73 69 66 59 33 17 13 3 6 4 2 1 5 3 7 9 10 10 18 8 18 14 15 19 19 34 32 46 43
Wind_Direction_850mb
32 29 26 24 22 19 17 14 8 5 2 359 354 352 349 345 341 335 330 324 320 317 315 313 308 305 302 289 270 286 281 288 309 201 192 192 180 158 163 192 211 212 238 239 257 265 263
28 26 22 20 19 15 12 9 6 3 359 356 354 351 348 345 339 334 333 326 320 317 309 310 304 295 287 275 292 295 330 307 313 195 186 192 204 193 178 194 170 235 238 253 261 262 247
25 21 17 15 13 11 8 5 2 360 357 355 351 349 347 344 339 337 338 338 331 315 301 299 291 282 281 277 284 268 291 327 242 194 193 197 201 179 196 200 273 262 289 303 242 257 212
20 16 14 11 7 4 3 0 359 358 356 353 350 348 347 343 339 339 340 338 320 327 302 281 281 280 264 301 289 278 266 214 178 199 194 212 205 223 234 276 356 336 64 312 279 6 241
14 12 11 7 3 1 359 357 356 355 354 352 349 347 347 342 338 339 339 337 330 326 317 288 279 280 275 343 32 19 223 214 199 193 210 224 206 225 172 102 10 352 235 224 308 249 257
11 8 6 3 0 360 358 355 353 352 352 352 349 347 347 342 338 336 344 334 333 334 348 313 276 298 254 188 339 341 343 221 170 192 187 193 177 103 45 106 210 223 223 241 221 286 44
8 6 3 0 359 358 356 354 352 352 351 351 349 349 349 346 347 342 342 347 8 336 309 275 273 265 280 293 296 267 314 173 214 164 165 188 128 194 217 198 203 210 202 230 248 240 252
7 5 2 0 357 356 356 354 353 352 351 353 351 351 354 357 39 25 8 49 3 323 298 304 291 274 279 272 293 259 240 181 159 195 134 71 218 224 218 178 194 202 239 270 274 261 175
6 3 1 359 356 354 355 355 352 351 352 354 353 354 -0 4 52 22 28 354 338 322 279 300 319 326 351 341 214 279 235 203 176 190 185 181 221 185 176 183 165 207 189 224 234 297 252
3 1 358 357 356 354 354 354 352 351 351 356 356 358 7 10 352 360 1 346 329 302 39 287 355 11 3 1 260 27 287 228 192 204 201 216 243 198 181 213 167 236 209 231 249 135 256
1 359 356 357 356 354 353 354 352 352 351 355 357 358 10 16 353 353 341 341 325 149 338 332 358 355 16 74 331 2 11 236 223 197 119 232 200 186 196 212 177 223 207 205 215 209 71
359 359 356 355 354 354 353 351 352 353 352 352 357 351 344 348 339 338 339 338 149 46 257 353 15 354 13 6 9 354 11 38 32 355 333 237 211 179 219 235 193 199 145 52 52 108 252
359 357 356 355 354 354 352 351 352 354 352 352 355 345 328 342 345 330 332 345 40 156 347 356 332 348 38 350 7 10 58 50 29 5 18 342 317 355 29 28 9 120 79 297 312 163 248
359 357 355 354 353 354 353 352 351 355 353 352 352 339 277 342 338 326 333 55 191 13 344 359 341 330 46 357 357 8 57 42 20 38 8 16 327 13 336 339 250 212 165 166 228 209 258
358 357 355 352 352 353 353 350 350 354 354 351 349 355 355 342 341 353 19 63 188 293 303 341 317 19 359 344 335 47 46 357 51 26 63 15 275 341 345 344 18 314 181 155 177 356 97
355 354 354 351 350 351 351 350 349 353 355 353 351 5 2 346 348 1 74 126 84 344 343 38 44 13 358 335 2 22 70 1 2 356 125 121 287 22 295 337 15 69 352 67 7 208 233
349 350 350 350 349 349 351 351 349 351 356 358 354 1 350 359 16 55 94 4 334 8 48 33 28 31 52 332 302 358 1 52 354 331 84 29 162 305 341 41 282 336 23 -0 125 140 196
345 346 345 346 348 347 348 351 354 351 355 2 354 11 350 6 47 35 54 318 330 347 22 40 81 69 76 358 322 21 88 83 352 348 43 21 142 292 258 88 57 65 48 48 65 207 226
340 341 341 342 345 345 344 346 355 358 357 356 341 320 353 19 67 5 320 313 349 4 9 55 92 82 46 358 322 29 26 186 56 105 133 309 353 6 351 347 39 50 47 35 232 12 237
333 334 334 339 342 342 342 343 352 358 360 355 350 356 5 53 72 90 5 304 328 359 36 12 81 58 70 283 289 295 268 314 314 203 77 99 140 168 194 230 174 290 316 351 107 229 334
327 328 330 335 337 338 339 341 346 356 1 4 10 45 13 330 2 358 266 334 339 357 351 21 60 73 196 259 284 278 278 310 286 242 109 116 208 206 238 270 279 268 284 271 235 219 224
323 325 327 330 333 335 337 340 341 350 3 6 15 359 348 305 304 340 5 28 33 339 305 344 53 314 261 228 222 258 241 236 246 333 110 19 245 189 262 237 242 267 259 253 256 247 254
317 320 323 325 329 331 332 335 340 343 3 22 7 338 330 344 348 6 249 81 0 350 282 46 347 312 239 216 294 274 269 252 244 203 196 169 167 127 268 193 236 274 250 231 223 216 228
311 313 318 321 324 324 326 329 335 340 348 10 348 334 355 290 323 280 308 305 293 259 258 290 303 256 276 319 299 280 265 258 252 250 203 170 154 159 230 168 236 238 168 180 213 245 247
304 305 311 317 319 321 321 323 327 332 332 345 336 330 275 274 309 295 311 340 322 313 283 260 266 240 327 312 334 325 326 340 285 235 197 188 141 190 180 212 285 280 212 192 183 252 236
300 298 305 312 314 318 316 318 321 319 322 305 322 278 261 304 226 255 309 296 285 293 319 291 307 311 281 103 103 195 234 271 306 318 58 105 107 141 156 183 239 228 208 209 95 262 278
296 296 299 307 309 311 314 318 328 337 334 291 282 278 262 260 278 263 232 292 282 261 257 301 317 349 317 77 117 169 243 216 242 228 215 145 141 194 210 239 276 240 229 151 184 255 357
294 293 299 304 304 303 304 306 346 338 328 310 305 275 271 269 280 275 269 254 258 249 249 321 328 311 41 88 174 218 203 240 274 242 205 191 197 214 204 193 272 216 149 191 214 225 217
288 291 303 303 300 298 293 294 337 325 314 293 307 298 285 274 269 282 284 277 262 251 250 224 231 227 247 88 272 26 262 278 195 269 203 255 204 204 199 213 240 209 230 226 233 262 247